When you browse on this site, cookies collect data to enhance your experience and personalize the content and advertising you see.
Visit our Privacy Policy to learn more. By continuing to use the site, you agree to this use of cookies and data.

Previsão horária em Abbasanta

Hoje, 25 Setembro, Sexta-feira

Tempo Temperatura Precipitação Vento Pressão Humidade
00:00 +21°C° 0.5 mm 4 m/s 728 mmHg 90%
01:00 +21°C° 0 mm 4 m/s 728 mmHg 91%
02:00 +21°C° 0.9 mm 5 m/s 727 mmHg 89%
03:00 +21°C° 0.9 mm 5 m/s 727 mmHg 87%
04:00 +21°C° 0.9 mm 5 m/s 727 mmHg 84%
05:00 +21°C° 0.9 mm 5 m/s 726 mmHg 85%
06:00 +21°C° 0.9 mm 5 m/s 726 mmHg 85%
07:00 +21°C° 0 mm 4 m/s 725 mmHg 86%
08:00 +22°C° 0.3 mm 5 m/s 725 mmHg 80%
09:00 +22°C° 0.3 mm 6 m/s 725 mmHg 73%
10:00 +23°C° 0.3 mm 7 m/s 725 mmHg 67%
11:00 +22°C° 0.7 mm 8 m/s 725 mmHg 69%
12:00 +21°C° 0.7 mm 8 m/s 725 mmHg 72%
13:00 +19°C° 0.7 mm 9 m/s 725 mmHg 74%
14:00 +17°C° 0.2 mm 9 m/s 725 mmHg 73%
15:00 +16°C° 0.2 mm 8 m/s 725 mmHg 72%
16:00 +15°C° 0.2 mm 8 m/s 725 mmHg 71%
17:00 +15°C° 0.4 mm 8 m/s 725 mmHg 71%
18:00 +13°C° 0.4 mm 8 m/s 725 mmHg 71%
19:00 +13°C° 0.4 mm 9 m/s 725 mmHg 71%
20:00 +13°C° 0.6 mm 9 m/s 725 mmHg 71%
21:00 +13°C° 0.6 mm 9 m/s 726 mmHg 70%
22:00 +13°C° 0.6 mm 9 m/s 726 mmHg 70%
23:00 +13°C° 0.7 mm 9 m/s 725 mmHg 70%

Amanhã, 26 Setembro, Sábado

Tempo Temperatura Precipitação Vento Pressão Humidade
00:00 +12°C° 0.7 mm 10 m/s 725 mmHg 71%
01:00 +12°C° 0.7 mm 10 m/s 724 mmHg 72%
02:00 +12°C° 0.6 mm 10 m/s 724 mmHg 71%
03:00 +12°C° 0.6 mm 11 m/s 724 mmHg 71%
04:00 +12°C° 0.6 mm 11 m/s 723 mmHg 71%
05:00 +12°C° 0.3 mm 11 m/s 724 mmHg 69%
06:00 +12°C° 0.3 mm 10 m/s 724 mmHg 67%
07:00 +12°C° 0.3 mm 10 m/s 724 mmHg 65%
08:00 +13°C° 0 mm 11 m/s 724 mmHg 62%
09:00 +14°C° 0 mm 11 m/s 725 mmHg 58%
10:00 +14°C° 0 mm 12 m/s 726 mmHg 55%
11:00 +15°C° 0.1 mm 12 m/s 725 mmHg 51%
12:00 +15°C° 0.1 mm 12 m/s 725 mmHg 48%
13:00 +17°C° 0.1 mm 12 m/s 725 mmHg 44%
14:00 +15°C° 0 mm 13 m/s 725 mmHg 48%
15:00 +15°C° 0 mm 13 m/s 725 mmHg 51%
16:00 +14°C° 0 mm 13 m/s 725 mmHg 55%
17:00 +14°C° 0 mm 12 m/s 725 mmHg 57%
18:00 +13°C° 0 mm 11 m/s 725 mmHg 59%
19:00 +13°C° 0 mm 10 m/s 725 mmHg 62%
20:00 +13°C° 0 mm 10 m/s 725 mmHg 62%
21:00 +13°C° 0 mm 9 m/s 725 mmHg 62%
22:00 +13°C° 0 mm 9 m/s 726 mmHg 62%
23:00 +13°C° 0 mm 8 m/s 725 mmHg 64%

Depois de amanhã, 27 Setembro, Domingo

Tempo Temperatura Precipitação Vento Pressão Humidade
00:00 +14°C° 0 mm 7 m/s 725 mmHg 66%
01:00 +14°C° 0 mm 6 m/s 725 mmHg 68%
02:00 +14°C° 0.5 mm 5 m/s 724 mmHg 73%
03:00 +14°C° 0.5 mm 4 m/s 724 mmHg 79%
04:00 +14°C° 0.5 mm 4 m/s 723 mmHg 84%
05:00 +14°C° 2.9 mm 5 m/s 722 mmHg 87%
06:00 +14°C° 2.9 mm 6 m/s 722 mmHg 90%
07:00 +14°C° 2.9 mm 7 m/s 721 mmHg 93%
08:00 +13°C° 3.4 mm 6 m/s 721 mmHg 88%
09:00 +13°C° 3.4 mm 4 m/s 721 mmHg 82%
10:00 +13°C° 3.4 mm 2 m/s 721 mmHg 77%
11:00 +13°C° 0.3 mm 5 m/s 722 mmHg 72%
12:00 +14°C° 0.3 mm 7 m/s 722 mmHg 68%
13:00 +14°C° 0.3 mm 10 m/s 723 mmHg 63%
14:00 +14°C° 0.2 mm 10 m/s 723 mmHg 63%
15:00 +14°C° 0.2 mm 10 m/s 723 mmHg 64%
16:00 +16°C° 0.2 mm 10 m/s 723 mmHg 64%
17:00 +15°C° 0.1 mm 8 m/s 724 mmHg 68%
18:00 +14°C° 0.1 mm 7 m/s 725 mmHg 73%
19:00 +13°C° 0.1 mm 5 m/s 725 mmHg 77%
20:00 +13°C° 0.5 mm 6 m/s 726 mmHg 77%
21:00 +12°C° 0.5 mm 7 m/s 726 mmHg 78%
22:00 +12°C° 0.5 mm 8 m/s 727 mmHg 79%
23:00 +12°C° 0.7 mm 8 m/s 727 mmHg 80%

28 Setembro, Segunda-feira

Tempo Temperatura Precipitação Vento Pressão Humidade
00:00 +12°C° 0.7 mm 7 m/s 727 mmHg 80%
01:00 +13°C° 0.7 mm 6 m/s 727 mmHg 81%
02:00 +13°C° 0.6 mm 6 m/s 727 mmHg 82%
03:00 +13°C° 0.6 mm 6 m/s 727 mmHg 83%
04:00 +13°C° 0.6 mm 5 m/s 727 mmHg 84%
05:00 +13°C° 1.1 mm 5 m/s 727 mmHg 84%
06:00 +13°C° 1.1 mm 5 m/s 727 mmHg 85%
07:00 +13°C° 1.1 mm 5 m/s 727 mmHg 85%
08:00 +14°C° 0.5 mm 6 m/s 728 mmHg 81%
09:00 +15°C° 0.5 mm 6 m/s 728 mmHg 77%
10:00 +16°C° 0.5 mm 7 m/s 729 mmHg 73%
11:00 +17°C° 0.5 mm 7 m/s 729 mmHg 71%
12:00 +17°C° 0.5 mm 8 m/s 729 mmHg 70%
13:00 +18°C° 0.5 mm 8 m/s 730 mmHg 69%
14:00 +18°C° 0.3 mm 8 m/s 730 mmHg 69%
15:00 +17°C° 0.3 mm 8 m/s 730 mmHg 70%
16:00 +17°C° 0.3 mm 8 m/s 730 mmHg 71%
17:00 +17°C° 0.3 mm 7 m/s 730 mmHg 75%
18:00 +16°C° 0.3 mm 7 m/s 731 mmHg 78%
19:00 +15°C° 0.3 mm 6 m/s 731 mmHg 82%
20:00 +16°C° 0.2 mm 6 m/s 731 mmHg 81%
21:00 +16°C° 0.2 mm 6 m/s 732 mmHg 80%
22:00 +16°C° 0.2 mm 6 m/s 732 mmHg 79%
23:00 +16°C° 0.1 mm 6 m/s 732 mmHg 80%

29 Setembro, Terça-feira

Tempo Temperatura Precipitação Vento Pressão Humidade
00:00 +16°C° 0.1 mm 5 m/s 732 mmHg 80%
01:00 +16°C° 0.1 mm 5 m/s 733 mmHg 81%
02:00 +16°C° 0.1 mm 5 m/s 732 mmHg 82%
03:00 +17°C° 0.1 mm 4 m/s 732 mmHg 83%
04:00 +17°C° 0.1 mm 4 m/s 732 mmHg 84%
05:00 +17°C° 0.1 mm 4 m/s 733 mmHg 85%
06:00 +17°C° 0.1 mm 3 m/s 733 mmHg 87%
07:00 +17°C° 0.1 mm 3 m/s 733 mmHg 88%
08:00 +18°C° 0 mm 3 m/s 733 mmHg 83%
09:00 +19°C° 0 mm 4 m/s 733 mmHg 78%
10:00 +20°C° 0 mm 4 m/s 734 mmHg 73%
11:00 +20°C° 0 mm 4 m/s 734 mmHg 71%
12:00 +21°C° 0 mm 4 m/s 734 mmHg 69%
13:00 +21°C° 0 mm 4 m/s 734 mmHg 67%
14:00 +21°C° 0 mm 4 m/s 734 mmHg 66%
15:00 +21°C° 0 mm 4 m/s 734 mmHg 65%
16:00 +21°C° 0 mm 3 m/s 733 mmHg 64%
17:00 +20°C° 0 mm 3 m/s 733 mmHg 69%
18:00 +18°C° 0 mm 2 m/s 733 mmHg 74%
19:00 +18°C° 0 mm 1 m/s 733 mmHg 79%
20:00 +18°C° 0 mm 1 m/s 733 mmHg 80%
21:00 +16°C° 0 mm 1 m/s 733 mmHg 80%
22:00 +16°C° 0 mm 1 m/s 733 mmHg 81%
23:00 +16°C° 0 mm 1 m/s 733 mmHg 82%

30 Setembro, Quarta-feira

Tempo Temperatura Precipitação Vento Pressão Humidade
00:00 +16°C° 0 mm 1 m/s 733 mmHg 82%
01:00 +15°C° 0 mm 1 m/s 732 mmHg 83%
02:00 +15°C° 0 mm 1 m/s 732 mmHg 83%
03:00 +15°C° 0 mm 1 m/s 732 mmHg 84%
04:00 +15°C° 0 mm 1 m/s 731 mmHg 84%
05:00 +15°C° 0 mm 1 m/s 731 mmHg 84%
06:00 +15°C° 0 mm 1 m/s 731 mmHg 84%
07:00 +15°C° 0 mm 1 m/s 731 mmHg 84%
08:00 +18°C° 0 mm 1 m/s 731 mmHg 76%
09:00 +20°C° 0 mm 1 m/s 731 mmHg 67%
10:00 +22°C° 0 mm 1 m/s 731 mmHg 59%
11:00 +23°C° 0 mm 2 m/s 731 mmHg 56%
12:00 +24°C° 0 mm 2 m/s 731 mmHg 52%
13:00 +24°C° 0 mm 3 m/s 731 mmHg 49%
14:00 +24°C° 0 mm 3 m/s 731 mmHg 52%
15:00 +22°C° 0 mm 3 m/s 730 mmHg 54%
16:00 +22°C° 0 mm 3 m/s 730 mmHg 57%
17:00 +20°C° 0 mm 3 m/s 730 mmHg 64%
18:00 +19°C° 0 mm 2 m/s 730 mmHg 70%
19:00 +17°C° 0 mm 2 m/s 729 mmHg 77%
20:00 +17°C° 0 mm 2 m/s 729 mmHg 79%
21:00 +16°C° 0 mm 2 m/s 730 mmHg 81%
22:00 +16°C° 0 mm 1 m/s 730 mmHg 83%
23:00 +16°C° 0 mm 1 m/s 729 mmHg 84%
Mostrar mais